Weather History for Petersburg, VA

Change the Weather History Date:

Thursday, October 11, 2012

  Actual Average (KRIC) Record (KRIC)
Temperature  
Mean Temperature 54 °F 61 °F  
Max Temperature 66 °F 72 °F 92 °F (1919)
Min Temperature 41 °F 50 °F 32 °F (1964)
Degree Days  
Heating Degree Days 12 5  
Month to date heating degree days 45  
Since 1 July heating degree days 74  
Cooling Degree Days 0 2  
Month to date cooling degree days 24  
Year to date cooling degree days 1528  
Growing Degree Days 4 (Base 50)    
Moisture  
Dew Point 41 °F    
Average Humidity 70    
Maximum Humidity 100    
Minimum Humidity 32    
Precipitation  
Precipitation 0.00 in 0.10 in 1.51 in (1902)
Month to date precipitation 1.08  
Year to date precipitation 35.20  
Snow  
Snow 0.00 in 0.00 in 0.00 in (2002)
Month to date snowfall 0.0  
Since 1 July snowfall 0.0  
Snow Depth -    
Sea Level Pressure  
Sea Level Pressure 30.23 in    
Wind  
Wind Speed 3 mph (North)    
Max Wind Speed 10 mph    
Max Gust Speed -    
Visibility 9 miles    
Events Rain    
T = Trace of Precipitation, MM = Missing Value Source: NWS Daily Summary

Daily Weather History Graph

Daily Weather History Graph

Search for Another Location

Airport:

Trip Planner

Search our weather history database for the weather conditions in past years. The results will help you decide how hot, cold, wet, or windy it might be!

Date:

Astronomy

Oct. 11, 2012 Rise Set
Actual Time 7:14 AM EDT 6:38 PM EDT
Civil Twilight 6:48 AM EDT 7:04 PM EDT
Nautical Twilight 6:18 AM EDT 7:34 PM EDT
Astronomical Twilight 5:48 AM EDT 8:04 PM EDT
Moon 2:56 AM EDT (10/11) 4:08 PM EDT (10/11)
Length of Visible Light 12h 15m
Length of Day
11h 23m
Waning Crescent, 18% of the Moon is Illuminated
Oct 11
Waning Crescent
Oct 15
New
Oct 21
First Quarter
Oct 29
Full
Nov 6
Last Quarter

Hourly Weather History & Observations

Time (EDT) Temp. Windchill Dew Point Humidity Pressure Visibility Wind Dir Wind Speed Gust Speed Precip Events Conditions
12:15 AM 57.2 °F - 48.2 °F 72% 30.09 in 10.0 mi WNW 4.6 mph - N/A Rain Light Rain
12:35 AM 55.4 °F - 48.2 °F 77% 30.10 in 10.0 mi NW 4.6 mph - N/A   Clear
12:55 AM 53.6 °F - 48.2 °F 82% 30.11 in 10.0 mi Calm Calm - N/A Rain Light Rain
1:15 AM 53.6 °F - 48.2 °F 82% 30.12 in 10.0 mi Calm Calm - N/A   Clear
1:55 AM 51.8 °F - 48.2 °F 88% 30.13 in 10.0 mi Calm Calm - N/A   Light Drizzle
2:15 AM 51.8 °F - 48.2 °F 88% 30.14 in 10.0 mi NNW 3.5 mph - N/A Rain Light Rain
2:55 AM 46.4 °F 45.2 °F 44.6 °F 93% 30.14 in 10.0 mi NW 3.5 mph - N/A   Clear
3:15 AM 48.2 °F - 46.4 °F 93% 30.15 in 10.0 mi Calm Calm - N/A   Clear
3:35 AM 46.4 °F - 44.6 °F 93% 30.16 in 7.0 mi Calm Calm - N/A   Light Drizzle
3:55 AM 46.4 °F - 44.6 °F 93% 30.16 in 10.0 mi Calm Calm - N/A   Light Drizzle
4:15 AM 44.6 °F - 44.6 °F 100% 30.17 in 10.0 mi Calm Calm - N/A   Clear
4:35 AM 42.8 °F 41.1 °F 42.8 °F 100% 30.18 in 10.0 mi NW 3.5 mph - N/A Rain Light Rain
4:55 AM 44.6 °F - 42.8 °F 93% 30.19 in 7.0 mi Calm Calm - N/A Rain Light Rain
5:15 AM 42.8 °F - 41.0 °F 93% 30.20 in 5.0 mi Calm Calm - N/A Rain Light Rain
5:35 AM 42.8 °F - 41.0 °F 93% 30.20 in 7.0 mi Calm Calm - N/A Rain Light Rain
5:55 AM 44.6 °F 43.1 °F 42.8 °F 93% 30.21 in 10.0 mi NNW 3.5 mph - N/A   Clear
6:15 AM 42.8 °F - 42.8 °F 100% 30.23 in 10.0 mi Calm Calm - N/A Rain Light Rain
6:35 AM 41.0 °F - 39.2 °F 93% 30.23 in 10.0 mi Calm Calm - N/A Rain Light Rain
6:55 AM 42.8 °F 41.1 °F 41.0 °F 93% 30.24 in 10.0 mi North 3.5 mph - N/A Rain Light Rain
7:15 AM 44.6 °F 41.4 °F 41.0 °F 87% 30.24 in 10.0 mi NNW 5.8 mph - N/A   Unknown
7:35 AM 44.6 °F 43.1 °F 41.0 °F 87% 30.25 in 10.0 mi NNW 3.5 mph - N/A   Unknown
7:55 AM 46.4 °F 45.2 °F 42.8 °F 87% 30.26 in 10.0 mi NNW 3.5 mph - N/A   Unknown
8:35 AM 51.8 °F - 42.8 °F 71% 30.28 in 10.0 mi North 4.6 mph - N/A   Light Drizzle
8:55 AM 53.6 °F - 41.0 °F 62% 30.29 in 10.0 mi North 5.8 mph - N/A Rain Light Rain
9:15 AM 53.6 °F - 39.2 °F 58% 30.30 in 10.0 mi North 10.4 mph - N/A   Clear
9:35 AM 53.6 °F - 39.2 °F 58% 30.30 in 10.0 mi NNE 10.4 mph - N/A   Clear
9:55 AM 55.4 °F - 39.2 °F 54% 30.31 in 10.0 mi North 10.4 mph - N/A   Clear
10:15 AM 57.2 °F - 37.4 °F 48% 30.32 in 10.0 mi North 9.2 mph - N/A   Clear
10:35 AM 57.2 °F - 37.4 °F 48% 30.32 in 10.0 mi NNE 9.2 mph - N/A   Clear
10:55 AM 57.2 °F - 33.8 °F 41% 30.32 in 10.0 mi NNE 9.2 mph - N/A   Clear
11:15 AM 59.0 °F - 33.8 °F 39% 30.32 in 10.0 mi North 5.8 mph - N/A   Clear
11:35 AM 59.0 °F - 32.0 °F 36% 30.31 in 10.0 mi NNE 4.6 mph - N/A   Clear
11:55 AM 60.8 °F - 33.8 °F 36% 30.31 in 10.0 mi NE 3.5 mph - N/A   Clear
12:15 PM 60.8 °F - 33.8 °F 36% 30.30 in 10.0 mi Calm Calm - N/A   Clear
12:35 PM 60.8 °F - 33.8 °F 36% 30.30 in 10.0 mi Calm Calm - N/A   Clear
12:55 PM 62.6 °F - 33.8 °F 34% 30.28 in 10.0 mi Calm Calm - N/A   Clear
1:15 PM 62.6 °F - 33.8 °F 34% 30.27 in 10.0 mi SE 3.5 mph - N/A   Clear
1:55 PM 62.6 °F - 33.8 °F 34% 30.26 in 10.0 mi NNE 3.5 mph - N/A   Clear
2:15 PM 62.6 °F - 32.0 °F 32% 30.25 in 10.0 mi Calm Calm - N/A   Clear
2:35 PM 64.4 °F - 33.8 °F 32% 30.25 in 10.0 mi NE 3.5 mph - N/A   Clear
2:55 PM 64.4 °F - 33.8 °F 32% 30.25 in 10.0 mi SSW 3.5 mph - N/A   Clear
3:15 PM 66.2 °F - 35.6 °F 32% 30.24 in 10.0 mi South 3.5 mph - N/A   Clear
3:35 PM 64.4 °F - 33.8 °F 32% 30.24 in 10.0 mi Calm Calm - N/A   Clear
3:55 PM 66.2 °F - 35.6 °F 32% 30.24 in 10.0 mi South 3.5 mph - N/A   Clear
4:15 PM 66.2 °F - 35.6 °F 32% 30.23 in 10.0 mi Calm Calm - N/A   Clear
4:55 PM 66.2 °F - 35.6 °F 32% 30.23 in 10.0 mi Calm Calm - N/A   Clear
5:15 PM 64.4 °F - 37.4 °F 37% 30.23 in 10.0 mi Calm Calm - N/A   Clear
5:55 PM 62.6 °F - 42.8 °F 48% 30.22 in 10.0 mi Calm Calm - N/A   Clear
6:35 PM 55.4 °F - 48.2 °F 77% 30.23 in 10.0 mi Calm Calm - N/A Rain Light Rain
6:55 PM 51.8 °F - 48.2 °F 88% 30.24 in 10.0 mi Calm Calm - N/A Rain Light Rain
7:35 PM 50.0 °F - 48.2 °F 94% 30.24 in 10.0 mi Calm Calm - N/A Rain Light Rain
7:55 PM 46.4 °F - 46.4 °F 100% 30.24 in 10.0 mi Calm Calm - N/A   Clear
8:15 PM 46.4 °F - 46.4 °F 100% 30.24 in 10.0 mi Calm Calm - N/A Rain Light Rain
8:35 PM 46.4 °F - 44.6 °F 93% 30.24 in 7.0 mi Calm Calm - N/A Rain Light Rain
8:55 PM 46.4 °F - 44.6 °F 93% 30.24 in 10.0 mi Calm Calm - N/A   Clear
9:15 PM 46.4 °F - 44.6 °F 93% 30.24 in 3.0 mi Calm Calm - N/A   Light Drizzle
9:35 PM 44.6 °F - 44.6 °F 100% 30.24 in 3.0 mi Calm Calm - N/A Rain Light Rain
9:55 PM 42.8 °F - 42.8 °F 100% 30.24 in 7.0 mi Calm Calm - N/A   Scattered Clouds
10:15 PM 44.6 °F - 42.8 °F 93% 30.23 in 7.0 mi Calm Calm - N/A   Light Drizzle
10:35 PM 42.8 °F - 42.8 °F 100% 30.23 in 7.0 mi Calm Calm - N/A   Clear
10:55 PM 42.8 °F - 42.8 °F 100% 30.23 in 7.0 mi Calm Calm - N/A Rain Light Rain
11:55 PM 41.0 °F - 39.2 °F 93% 30.22 in 7.0 mi Calm Calm - N/A   Light Drizzle